Weather History for Hugo, OK

Change the Weather History Date:

Sunday, February 10, 2013

  Actual Average Record
Temperature  
Mean Temperature 56 °F -  
Max Temperature 65 °F 57 °F 65 °F (2013)
Min Temperature 45 °F 32 °F 34 °F (2014)
Degree Days  
Heating Degree Days 10    
Growing Degree Days 6 (Base 50)    
Moisture  
Dew Point 37 °F    
Average Humidity 55    
Maximum Humidity 98    
Minimum Humidity 23    
Precipitation  
Precipitation 0.00 in - - ()
Sea Level Pressure  
Sea Level Pressure 29.82 in    
Wind  
Wind Speed 11 mph (West)    
Max Wind Speed 18 mph    
Max Gust Speed 26 mph    
Visibility 8 miles    
Events Rain , Thunderstorm    
Averages and records for this station are not official NWS values.
T = Trace of Precipitation, MM = Missing Value Source: NWS Daily Summary

Daily Weather History Graph

Daily Weather History Graph

Search for Another Location

Airport:

Trip Planner

Search our weather history database for the weather conditions in past years. The results will help you decide how hot, cold, wet, or windy it might be!

Date:

Astronomy

Feb. 10, 2013 Rise Set
Actual Time 7:11 AM CST 6:01 PM CST
Civil Twilight 6:45 AM CST 6:27 PM CST
Nautical Twilight 6:16 AM CST 6:57 PM CST
Astronomical Twilight 5:47 AM CST 7:26 PM CST
Moon 7:05 AM CST (2/10) 6:48 PM CST (2/10)
Length of Visible Light 11h 41m
Length of Day
10h 50m
Waxing Crescent, 0% of the Moon is Illuminated
Feb 10
Waxing Crescent
Feb 17
First Quarter
Feb 25
Full
Mar 4
Last Quarter
Mar 11
New

Hourly Weather History & Observations

Time (CST) Temp. Windchill Dew Point Humidity Pressure Visibility Wind Dir Wind Speed Gust Speed Precip Events Conditions
12:15 AM 49.3 °F - 48.4 °F 97% 29.81 in 3.0 mi ESE 11.5 mph 17.3 mph N/A   Overcast
12:35 AM 51.1 °F - 50.2 °F 97% 29.80 in 4.0 mi SE 13.8 mph 24.2 mph N/A   Overcast
12:55 AM 52.0 °F - 50.9 °F 96% 29.78 in 4.0 mi SE 13.8 mph 19.6 mph N/A   Overcast
1:15 AM 51.3 °F - 50.2 °F 96% 29.76 in 2.5 mi SE 11.5 mph 19.6 mph N/A   Overcast
1:35 AM 51.3 °F - 50.2 °F 96% 29.75 in 2.5 mi SE 12.7 mph 18.4 mph N/A   Overcast
1:55 AM 50.5 °F - 49.6 °F 97% 29.72 in 2.0 mi ESE 13.8 mph 19.6 mph N/A   Overcast
2:15 AM 50.7 °F - 50.0 °F 97% 29.71 in 1.2 mi ESE 12.7 mph 16.1 mph N/A   Overcast
2:35 AM 52.0 °F - 51.3 °F 97% 29.70 in 1.2 mi SE 9.2 mph 16.1 mph N/A   Drizzle
2:55 AM 53.2 °F - 52.5 °F 97% 29.73 in 1.5 mi SSE 8.1 mph - N/A   Drizzle
3:15 AM 53.6 °F - 52.7 °F 97% 29.72 in 1.5 mi SSE 8.1 mph 17.3 mph N/A Rain Light Rain
3:35 AM 53.6 °F - 52.9 °F 97% 29.71 in 2.0 mi SE 8.1 mph - N/A Rain , Thunderstorm Thunderstorms and Rain
3:55 AM 54.1 °F - 53.6 °F 98% 29.68 in 2.5 mi SE 10.4 mph 17.3 mph N/A Rain , Thunderstorm Thunderstorms and Rain
4:15 AM 54.5 °F - 53.8 °F 97% 29.67 in 2.5 mi SE 6.9 mph 17.3 mph N/A Rain , Thunderstorm Heavy Thunderstorms and Rain
4:35 AM 56.1 °F - 55.4 °F 97% 29.70 in 3.0 mi SSE 18.4 mph 24.2 mph N/A Rain , Thunderstorm Thunderstorms and Rain
4:55 AM 57.7 °F - 56.7 °F 96% 29.70 in 7.0 mi SSW 17.3 mph 26.5 mph N/A Rain , Thunderstorm Rain
5:15 AM 57.2 °F - 55.4 °F 94% 29.68 in 10.0 mi South 15.0 mph 24.2 mph N/A Rain , Thunderstorm Thunderstorms and Rain
5:35 AM 57.2 °F - 55.4 °F 94% 29.71 in 10.0 mi SSW 13.8 mph - N/A Rain Light Rain
5:55 AM 57.2 °F - 55.8 °F 95% 29.72 in 4.0 mi SW 13.8 mph 19.6 mph N/A   Light Drizzle
6:15 AM 57.4 °F - 55.9 °F 95% 29.72 in 10.0 mi North - - N/A   Overcast
6:35 AM 57.2 °F - 54.9 °F 92% 29.73 in 10.0 mi North - - N/A   Mostly Cloudy
6:55 AM 56.5 °F - 53.8 °F 91% 29.74 in 10.0 mi North - - N/A   Overcast
7:15 AM 55.4 °F - 51.1 °F 85% 29.76 in 10.0 mi West 12.7 mph 18.4 mph N/A   Mostly Cloudy
7:35 AM 54.1 °F - 45.7 °F 73% 29.76 in 10.0 mi West 12.7 mph - N/A   Mostly Cloudy
7:55 AM 52.7 °F - 41.2 °F 65% 29.77 in 10.0 mi West 10.4 mph - N/A   Mostly Cloudy
8:15 AM 51.8 °F - 39.2 °F 62% 29.77 in 10.0 mi WNW 8.1 mph - N/A   Mostly Cloudy
8:35 AM 52.0 °F - 39.4 °F 62% 29.78 in 10.0 mi West 6.9 mph - N/A   Scattered Clouds
8:55 AM 54.5 °F - 37.8 °F 53% 29.78 in 10.0 mi West 9.2 mph - N/A   Clear
9:15 AM 54.9 °F - 36.1 °F 49% 29.80 in 10.0 mi West 6.9 mph - N/A   Clear
9:35 AM 56.5 °F - 34.5 °F 44% 29.81 in 10.0 mi West 12.7 mph - N/A   Clear
9:55 AM 56.7 °F - 32.2 °F 40% 29.81 in 10.0 mi West 12.7 mph - N/A   Clear
10:15 AM 58.3 °F - 32.5 °F 38% 29.82 in 10.0 mi West 12.7 mph - N/A   Clear
10:35 AM 59.5 °F - 32.2 °F 36% 29.82 in 10.0 mi West 16.1 mph 20.7 mph N/A   Clear
10:55 AM 59.2 °F - 31.5 °F 35% 29.83 in 10.0 mi West 13.8 mph 20.7 mph N/A   Clear
11:15 AM 58.6 °F - 30.4 °F 34% 29.84 in 10.0 mi West 12.7 mph - N/A   Clear
11:35 AM 61.3 °F - 29.8 °F 30% 29.83 in 10.0 mi West 13.8 mph 19.6 mph N/A   Clear
11:55 AM 62.2 °F - 30.4 °F 30% 29.82 in 10.0 mi West 13.8 mph 19.6 mph N/A   Clear
12:15 PM 63.1 °F - 28.4 °F 27% 29.81 in 10.0 mi North - - N/A   Clear
12:35 PM 62.1 °F - 27.7 °F 27% 29.81 in 10.0 mi West 13.8 mph 18.4 mph N/A   Clear
12:55 PM 63.7 °F - 29.7 °F 28% 29.80 in 10.0 mi West 12.7 mph 20.7 mph N/A   Clear
1:15 PM 63.5 °F - 27.1 °F 25% 29.80 in 10.0 mi West 13.8 mph - N/A   Clear
1:35 PM 63.7 °F - 27.3 °F 25% 29.80 in 10.0 mi North - - N/A   Clear
1:55 PM 64.0 °F - 28.6 °F 26% 29.80 in 10.0 mi WNW 10.4 mph 19.6 mph N/A   Clear
2:15 PM 63.7 °F - 28.2 °F 26% 29.80 in 10.0 mi North - - N/A   Clear
2:35 PM 64.4 °F - 28.9 °F 26% 29.81 in 10.0 mi West 12.7 mph 19.6 mph N/A   Clear
3:15 PM 65.1 °F - 27.9 °F 25% 29.81 in 10.0 mi North - - N/A   Clear
3:35 PM 64.9 °F - 27.0 °F 24% 29.82 in 10.0 mi West 15.0 mph - N/A   Clear
3:55 PM 65.5 °F - 27.9 °F 24% 29.82 in 10.0 mi West 12.7 mph - N/A   Clear
4:15 PM 65.7 °F - 27.9 °F 24% 29.83 in 10.0 mi WNW 13.8 mph 20.7 mph N/A   Clear
4:35 PM 65.1 °F - 26.2 °F 23% 29.83 in 10.0 mi West 11.5 mph 19.6 mph N/A   Clear
4:55 PM 62.4 °F - 26.8 °F 26% 29.84 in 10.0 mi West 6.9 mph 20.7 mph N/A   Clear
5:15 PM 62.4 °F - 28.4 °F 28% 29.85 in 10.0 mi WNW 8.1 mph - N/A   Clear
5:35 PM 59.7 °F - 28.2 °F 30% 29.86 in 10.0 mi North 5.8 mph - N/A   Clear
5:55 PM 58.3 °F - 28.4 °F 32% 29.87 in 10.0 mi NNW 5.8 mph - N/A   Clear
6:15 PM 57.2 °F - 28.2 °F 33% 29.88 in 10.0 mi West 6.9 mph - N/A   Clear
6:35 PM 56.3 °F - 27.7 °F 33% 29.89 in 10.0 mi North - - N/A   Clear
6:55 PM 55.6 °F - 26.8 °F 33% 29.90 in 10.0 mi North - - N/A   Clear
7:15 PM 55.2 °F - 26.2 °F 33% 29.91 in 10.0 mi North - - N/A   Clear
7:35 PM 54.5 °F - 26.1 °F 33% 29.92 in 10.0 mi North - - N/A   Clear
7:55 PM 55.0 °F - 25.9 °F 33% 29.93 in 10.0 mi West 5.8 mph - N/A   Clear
8:15 PM 54.7 °F - 25.9 °F 33% 29.94 in 10.0 mi West 5.8 mph - N/A   Clear
8:35 PM 54.0 °F - 26.4 °F 35% 29.96 in 10.0 mi West 4.6 mph - N/A   Clear
8:55 PM 54.3 °F - 26.1 °F 34% 29.97 in 10.0 mi West 3.5 mph - N/A   Clear
9:15 PM 53.6 °F - 26.2 °F 35% 29.98 in 10.0 mi North - - N/A   Clear
9:35 PM 50.9 °F - 27.5 °F 40% 29.99 in 10.0 mi North - - N/A   Clear
9:55 PM 50.0 °F - 27.7 °F 42% 30.00 in 10.0 mi North - - N/A   Clear
10:15 PM 51.8 °F - 26.6 °F 38% 30.00 in 10.0 mi WNW 5.8 mph - N/A   Clear
10:35 PM 50.5 °F - 27.0 °F 40% 30.01 in 10.0 mi WNW 6.9 mph - N/A   Clear
10:55 PM 48.4 °F - 28.0 °F 45% 30.00 in 10.0 mi NW 6.9 mph - N/A   Clear
11:15 PM 47.7 °F - 30.2 °F 51% 30.02 in 10.0 mi North 8.1 mph 17.3 mph N/A   Clear
11:35 PM 46.6 °F - 29.1 °F 51% 30.02 in 10.0 mi North 6.9 mph - N/A   Clear
11:55 PM 45.7 °F 41.0 °F 30.2 °F 55% 30.02 in 10.0 mi North 9.2 mph - N/A   Clear